{"data":{"norad_id":65331,"epoch":"2026-09-20T13:04:18.566976Z","epoch_age_seconds":113561,"freshness":"FRESH","line1":"1 65331U 25189J   26263.54465934  .00013466  00000+0  44439-3 0  9998","line2":"2 65331  53.1581  19.9728 0001526  95.5802 264.5373 15.31738682 60901","mean_motion":15.31738682,"eccentricity":0.0001526,"inclination_deg":53.1581,"raan_deg":19.9728,"arg_perigee_deg":95.5802,"mean_anomaly_deg":264.5373,"bstar":0.00044439,"rev_number":6090,"period_min":94.010813784489,"perigee_km":469.57956758946,"apogee_km":471.66980965683,"semimajor_km":6848.7616886231,"source":"CELESTRAK","updated_at":"2026-09-21T09:00:35.570370Z"}}